******** Week 357 almanac for PRN-1 ******** ID: 1 Health: 0 Eccentricity: 0.001497745514 Time of Applicability(s): 233472 Orbital Inclination(rad): 0.9583928468 Rate of Right Ascen(r/s): -8.068907531e-09 SQRT(A) (m 1/2): 5153.578125 Right Ascen at Week(rad): -2.770510119 Argument of Perigee(rad): 0.04118229088 Mean Anom(rad): -0.08662871878 Af0(s): 0.0002637860107 Af1(s/s): -3.637979e-12 week: 357 ******** Week 357 almanac for PRN-2 ******** ID: 2 Health: 0 Eccentricity: 0.01695203781 Time of Applicability(s): 233472 Orbital Inclination(rad): 0.9637917401 Rate of Right Ascen(r/s): -7.943188008e-09 SQRT(A) (m 1/2): 5153.553711 Right Ascen at Week(rad): -2.933075381 Argument of Perigee(rad): -0.8277893633 Mean Anom(rad): 1.343332368 Af0(s): 2.788594971e-05 Af1(s/s): 7.275958e-12 week: 357 ******** Week 357 almanac for PRN-3 ******** ID: 3 Health: 0 Eccentricity: 0.006410598755 Time of Applicability(s): 233472 Orbital Inclination(rad): 0.9928534855 Rate of Right Ascen(r/s): -7.634603726e-09 SQRT(A) (m 1/2): 5153.596191 Right Ascen at Week(rad): -1.78404812 Argument of Perigee(rad): 1.20499097 Mean Anom(rad): -2.263831321 Af0(s): 0.0004529582642 Af1(s/s): -1.091394e-11 week: 357 ******** Week 357 almanac for PRN-4 ******** ID: 4 Health: 0 Eccentricity: 0.003737449646 Time of Applicability(s): 233472 Orbital Inclination(rad): 0.9705328666 Rate of Right Ascen(r/s): -7.680319916e-09 SQRT(A) (m 1/2): 5153.693359 Right Ascen at Week(rad): -0.7129029657 Argument of Perigee(rad): -2.891224595 Mean Anom(rad): 0.7486230716 Af0(s): 3.391534424e-05 Af1(s/s): 3.637979e-12 week: 357 ******** Week 357 almanac for PRN-5 ******** ID: 5 Health: 0 Eccentricity: 0.00537443161 Time of Applicability(s): 233472 Orbital Inclination(rad): 0.9794371457 Rate of Right Ascen(r/s): -7.794610391e-09 SQRT(A) (m 1/2): 5153.648926 Right Ascen at Week(rad): -1.843552043 Argument of Perigee(rad): 1.420269219 Mean Anom(rad): 1.391476745 Af0(s): -0.0001808818359 Af1(s/s): 0 week: 357 ******** Week 357 almanac for PRN-6 ******** ID: 6 Health: 0 Eccentricity: 0.003871917725 Time of Applicability(s): 233472 Orbital Inclination(rad): 0.9873287578 Rate of Right Ascen(r/s): -7.760323248e-09 SQRT(A) (m 1/2): 5153.57959 Right Ascen at Week(rad): -2.820538266 Argument of Perigee(rad): -0.5910522354 Mean Anom(rad): -0.9165550192 Af0(s): -0.0004815978882 Af1(s/s): -3.637979e-12 week: 357 ******** Week 357 almanac for PRN-7 ******** ID: 7 Health: 0 Eccentricity: 0.02033662796 Time of Applicability(s): 233472 Orbital Inclination(rad): 0.9512083039 Rate of Right Ascen(r/s): -7.828897533e-09 SQRT(A) (m 1/2): 5153.572266 Right Ascen at Week(rad): 0.2956085092 Argument of Perigee(rad): -1.998309583 Mean Anom(rad): -1.801515502 Af0(s): -0.0001160658447 Af1(s/s): -3.637979e-12 week: 357 ******** Week 357 almanac for PRN-8 ******** ID: 8 Health: 0 Eccentricity: 0.01152515411 Time of Applicability(s): 233472 Orbital Inclination(rad): 0.943754116 Rate of Right Ascen(r/s): -7.966046103e-09 SQRT(A) (m 1/2): 5153.627441 Right Ascen at Week(rad): 2.34359233 Argument of Perigee(rad): 0.5136506208 Mean Anom(rad): 1.03779006 Af0(s): 0.0003896496216 Af1(s/s): -3.637979e-12 week: 357 ******** Week 357 almanac for PRN-9 ******** ID: 9 Health: 0 Eccentricity: 0.003389835358 Time of Applicability(s): 233472 Orbital Inclination(rad): 0.9646546043 Rate of Right Ascen(r/s): -7.748894201e-09 SQRT(A) (m 1/2): 5153.740723 Right Ascen at Week(rad): -0.7770047122 Argument of Perigee(rad): 2.07527265 Mean Anom(rad): 1.630086408 Af0(s): 0.0006082151733 Af1(s/s): 0 week: 357 ******** Week 357 almanac for PRN-10 ******** ID: 10 Health: 0 Eccentricity: 0.01096391678 Time of Applicability(s): 233472 Orbital Inclination(rad): 0.9923920928 Rate of Right Ascen(r/s): -7.646032773e-09 SQRT(A) (m 1/2): 5153.60791 Right Ascen at Week(rad): -1.786559189 Argument of Perigee(rad): -2.25891704 Mean Anom(rad): 3.037505542 Af0(s): -0.0004642633789 Af1(s/s): 0 week: 357 ******** Week 357 almanac for PRN-11 ******** ID: 11 Health: 0 Eccentricity: 0.002216339111 Time of Applicability(s): 233472 Orbital Inclination(rad): 0.9641752353 Rate of Right Ascen(r/s): -8.000333246e-09 SQRT(A) (m 1/2): 5153.515625 Right Ascen at Week(rad): -2.801305457 Argument of Perigee(rad): -2.290883087 Mean Anom(rad): 0.121704298 Af0(s): -0.0003504585571 Af1(s/s): 1.455192e-11 week: 357 ******** Week 357 almanac for PRN-12 ******** ID: 12 Health: 0 Eccentricity: 0.009055137634 Time of Applicability(s): 233472 Orbital Inclination(rad): 0.9588422552 Rate of Right Ascen(r/s): -7.760323248e-09 SQRT(A) (m 1/2): 5153.732422 Right Ascen at Week(rad): 1.413349828 Argument of Perigee(rad): 1.552502783 Mean Anom(rad): -2.43706067 Af0(s): -0.0004800905395 Af1(s/s): 0 week: 357 ******** Week 357 almanac for PRN-13 ******** ID: 13 Health: 0 Eccentricity: 0.009945392609 Time of Applicability(s): 233472 Orbital Inclination(rad): 0.9762493419 Rate of Right Ascen(r/s): -7.623174678e-09 SQRT(A) (m 1/2): 5153.625 Right Ascen at Week(rad): -0.6021882019 Argument of Perigee(rad): 0.9988971305 Mean Anom(rad): 0.7775552375 Af0(s): 0.0005426455078 Af1(s/s): 0 week: 357 ******** Week 357 almanac for PRN-14 ******** ID: 14 Health: 0 Eccentricity: 0.006613731384 Time of Applicability(s): 233472 Orbital Inclination(rad): 0.9422021589 Rate of Right Ascen(r/s): -7.943188008e-09 SQRT(A) (m 1/2): 5153.592773 Right Ascen at Week(rad): 1.359013726 Argument of Perigee(rad): -2.757167557 Mean Anom(rad): -2.61582074 Af0(s): 0.0005803292236 Af1(s/s): 3.637979e-12 week: 357 ******** Week 357 almanac for PRN-15 ******** ID: 15 Health: 0 Eccentricity: 0.01659250259 Time of Applicability(s): 233472 Orbital Inclination(rad): 0.9424358513 Rate of Right Ascen(r/s): -7.988904198e-09 SQRT(A) (m 1/2): 5153.633789 Right Ascen at Week(rad): -0.9205626189 Argument of Perigee(rad): 1.498096649 Mean Anom(rad): 0.03530327954 Af0(s): 0.0003037307495 Af1(s/s): 3.637979e-12 week: 357 ******** Week 357 almanac for PRN-16 ******** ID: 16 Health: 0 Eccentricity: 0.01505947113 Time of Applicability(s): 233472 Orbital Inclination(rad): 0.957979391 Rate of Right Ascen(r/s): -7.794610391e-09 SQRT(A) (m 1/2): 5153.584473 Right Ascen at Week(rad): 1.430367052 Argument of Perigee(rad): 0.9263847051 Mean Anom(rad): 2.051613543 Af0(s): 0.000162039978 Af1(s/s): 7.275958e-12 week: 357 ******** Week 357 almanac for PRN-17 ******** ID: 17 Health: 0 Eccentricity: 0.01273012161 Time of Applicability(s): 233472 Orbital Inclination(rad): 0.9595193639 Rate of Right Ascen(r/s): -7.863184676e-09 SQRT(A) (m 1/2): 5153.532715 Right Ascen at Week(rad): 2.447967813 Argument of Perigee(rad): -1.126392431 Mean Anom(rad): 0.9475548384 Af0(s): -4.59741333e-05 Af1(s/s): -1.091394e-11 week: 357 ******** Week 357 almanac for PRN-18 ******** ID: 18 Health: 0 Eccentricity: 0.005708217621 Time of Applicability(s): 233472 Orbital Inclination(rad): 0.9722825634 Rate of Right Ascen(r/s): -7.908900866e-09 SQRT(A) (m 1/2): 5153.594727 Right Ascen at Week(rad): -2.825284768 Argument of Perigee(rad): -2.861028093 Mean Anom(rad): -1.035620541 Af0(s): -0.0003383997681 Af1(s/s): 1.091394e-11 week: 357 ******** Week 357 almanac for PRN-19 ******** ID: 19 Health: 0 Eccentricity: 0.01104402542 Time of Applicability(s): 233472 Orbital Inclination(rad): 0.958728405 Rate of Right Ascen(r/s): -7.851755628e-09 SQRT(A) (m 1/2): 5153.666992 Right Ascen at Week(rad): 2.491866029 Argument of Perigee(rad): 2.923658401 Mean Anom(rad): 2.78627649 Af0(s): 0.0005449065308 Af1(s/s): 0 week: 357 ******** Week 357 almanac for PRN-20 ******** ID: 20 Health: 255 Eccentricity: 0.0003051757812 Time of Applicability(s): 233472 Orbital Inclination(rad): 0.9600766304 Rate of Right Ascen(r/s): -7.783181343e-09 SQRT(A) (m 1/2): 5153.64209 Right Ascen at Week(rad): -0.7712972251 Argument of Perigee(rad): 1.481039351 Mean Anom(rad): 0.3199102703 Af0(s): 0 Af1(s/s): 0 week: 357 ******** Week 357 almanac for PRN-21 ******** ID: 21 Health: 0 Eccentricity: 0.0006623268127 Time of Applicability(s): 233472 Orbital Inclination(rad): 0.9622817277 Rate of Right Ascen(r/s): -7.954617056e-09 SQRT(A) (m 1/2): 5153.705566 Right Ascen at Week(rad): -1.777192019 Argument of Perigee(rad): -0.4105825415 Mean Anom(rad): -2.656518793 Af0(s): 0.0003127748413 Af1(s/s): 7.275958e-12 week: 357 ******** Week 357 almanac for PRN-22 ******** ID: 22 Health: 0 Eccentricity: 0.01214885712 Time of Applicability(s): 233472 Orbital Inclination(rad): 0.9574221245 Rate of Right Ascen(r/s): -7.794610391e-09 SQRT(A) (m 1/2): 5153.57373 Right Ascen at Week(rad): 1.433713647 Argument of Perigee(rad): -0.9945176453 Mean Anom(rad): 1.59769155 Af0(s): -3.843739014e-05 Af1(s/s): 3.637979e-12 week: 357 ******** Week 357 almanac for PRN-23 ******** ID: 23 Health: 0 Eccentricity: 0.006015777588 Time of Applicability(s): 233472 Orbital Inclination(rad): 0.987394671 Rate of Right Ascen(r/s): -7.703178011e-09 SQRT(A) (m 1/2): 5153.658691 Right Ascen at Week(rad): -1.818561564 Argument of Perigee(rad): -2.74075179 Mean Anom(rad): -2.155038153 Af0(s): 0.0004831052368 Af1(s/s): 3.637979e-12 week: 357 ******** Week 357 almanac for PRN-24 ******** ID: 24 Health: 0 Eccentricity: 0.01786708832 Time of Applicability(s): 233472 Orbital Inclination(rad): 0.9352333321 Rate of Right Ascen(r/s): -8.034620388e-09 SQRT(A) (m 1/2): 5153.590332 Right Ascen at Week(rad): 0.1875051829 Argument of Perigee(rad): 1.132904359 Mean Anom(rad): -0.8204707469 Af0(s): -0.0001002386841 Af1(s/s): 1.455192e-11 week: 357 ******** Week 357 almanac for PRN-25 ******** ID: 25 Health: 0 Eccentricity: 0.01295280457 Time of Applicability(s): 233472 Orbital Inclination(rad): 0.9472055728 Rate of Right Ascen(r/s): -7.886042771e-09 SQRT(A) (m 1/2): 5153.67627 Right Ascen at Week(rad): 1.319715955 Argument of Perigee(rad): 1.154311181 Mean Anom(rad): -2.584553522 Af0(s): 0.0003512122314 Af1(s/s): -3.637979e-12 week: 357 ******** Week 357 almanac for PRN-26 ******** ID: 26 Health: 0 Eccentricity: 0.01099824905 Time of Applicability(s): 233472 Orbital Inclination(rad): 0.9280068445 Rate of Right Ascen(r/s): -8.103194673e-09 SQRT(A) (m 1/2): 5153.645508 Right Ascen at Week(rad): 1.245533603 Argument of Perigee(rad): 0.7066404592 Mean Anom(rad): 2.874584873 Af0(s): -0.0002570029419 Af1(s/s): -7.275958e-12 week: 357 ******** Week 357 almanac for PRN-27 ******** ID: 27 Health: 0 Eccentricity: 0.01429319382 Time of Applicability(s): 233472 Orbital Inclination(rad): 0.9528741112 Rate of Right Ascen(r/s): -7.897471818e-09 SQRT(A) (m 1/2): 5153.616699 Right Ascen at Week(rad): 2.375441531 Argument of Perigee(rad): 0.8737979262 Mean Anom(rad): 1.133670226 Af0(s): -3.014697266e-05 Af1(s/s): -1.091394e-11 week: 357 ******** Week 357 almanac for PRN-28 ******** ID: 28 Health: 0 Eccentricity: 0.0004019737244 Time of Applicability(s): 233472 Orbital Inclination(rad): 0.9621618855 Rate of Right Ascen(r/s): -7.748894201e-09 SQRT(A) (m 1/2): 5153.726074 Right Ascen at Week(rad): 0.269645435 Argument of Perigee(rad): 0.1863153741 Mean Anom(rad): -1.636946253 Af0(s): -0.0004725537964 Af1(s/s): 7.275958e-12 week: 357 ******** Week 357 almanac for PRN-29 ******** ID: 29 Health: 0 Eccentricity: 0.003304004669 Time of Applicability(s): 233472 Orbital Inclination(rad): 0.9621738697 Rate of Right Ascen(r/s): -7.828897533e-09 SQRT(A) (m 1/2): 5153.724121 Right Ascen at Week(rad): 2.464629631 Argument of Perigee(rad): 2.741702289 Mean Anom(rad): 1.005821016 Af0(s): -0.0002984550293 Af1(s/s): 7.275958e-12 week: 357 ******** Week 357 almanac for PRN-30 ******** ID: 30 Health: 0 Eccentricity: 0.007975578308 Time of Applicability(s): 233472 Orbital Inclination(rad): 0.9364617152 Rate of Right Ascen(r/s): -8.000333246e-09 SQRT(A) (m 1/2): 5153.708496 Right Ascen at Week(rad): 0.2869004718 Argument of Perigee(rad): -2.333302 Mean Anom(rad): -1.941446308 Af0(s): 9.270194092e-05 Af1(s/s): 1.091394e-11 week: 357 ******** Week 357 almanac for PRN-31 ******** ID: 31 Health: 0 Eccentricity: 0.01083421707 Time of Applicability(s): 233472 Orbital Inclination(rad): 0.9549653584 Rate of Right Ascen(r/s): -7.817468486e-09 SQRT(A) (m 1/2): 5153.713379 Right Ascen at Week(rad): 0.319733503 Argument of Perigee(rad): 0.9366083725 Mean Anom(rad): -2.89053288 Af0(s): -0.0001326466797 Af1(s/s): 3.637979e-12 week: 357 ******** Week 357 almanac for PRN-32 ******** ID: 32 Health: 0 Eccentricity: 0.009293079376 Time of Applicability(s): 233472 Orbital Inclination(rad): 0.9677165737 Rate of Right Ascen(r/s): -7.680319916e-09 SQRT(A) (m 1/2): 5153.67627 Right Ascen at Week(rad): -0.7600710024 Argument of Perigee(rad): -2.011452532 Mean Anom(rad): 1.725845608 Af0(s): -7.838212891e-05 Af1(s/s): 1.818989e-11 week: 357